TimeMDT,TemperatureF,Dew PointF,Humidity,Sea Level PressureIn,VisibilityMPH,Wind Direction,Wind SpeedMPH,Gust SpeedMPH,PrecipitationIn,Events,Conditions,WindDirDegrees,DateUTC
12:53 AM,42.1,23.0,47,29.70,10.0,North,5.8,-,N/A,,Overcast,360,2013-10-09 06:53:00
1:53 AM,39.0,25.0,57,29.71,10.0,NNE,8.1,-,N/A,,Overcast,20,2013-10-09 07:53:00
2:53 AM,37.0,26.1,65,29.71,10.0,North,4.6,-,N/A,,Overcast,350,2013-10-09 08:53:00
3:53 AM,37.0,26.1,65,29.70,10.0,North,3.5,-,N/A,,Partly Cloudy,10,2013-10-09 09:53:00
4:53 AM,37.9,25.0,60,29.70,10.0,NNE,4.6,-,N/A,,Overcast,30,2013-10-09 10:53:00
5:53 AM,37.0,26.1,65,29.72,10.0,NE,5.8,-,N/A,,Mostly Cloudy,40,2013-10-09 11:53:00
6:53 AM,39.9,25.0,55,29.71,10.0,ENE,5.8,-,N/A,,Overcast,70,2013-10-09 12:53:00
7:53 AM,39.9,26.1,58,29.73,10.0,East,11.5,-,N/A,,Clear,80,2013-10-09 13:53:00
8:53 AM,43.0,27.0,53,29.74,10.0,ENE,17.3,-,N/A,,Mostly Cloudy,70,2013-10-09 14:53:00
9:53 AM,46.9,28.0,48,29.74,10.0,ENE,15.0,-,N/A,,Scattered Clouds,70,2013-10-09 15:53:00
10:53 AM,50.0,26.1,39,29.74,10.0,ENE,9.2,-,N/A,,Clear,60,2013-10-09 16:53:00
11:53 AM,55.9,27.0,33,29.69,10.0,East,10.4,-,N/A,,Clear,100,2013-10-09 17:53:00
12:53 PM,57.9,21.9,25,29.68,10.0,SSW,11.5,19.6,N/A,,Scattered Clouds,210,2013-10-09 18:53:00
1:53 PM,55.0,24.1,30,29.70,10.0,West,5.8,-,N/A,,Overcast,260,2013-10-09 19:53:00
2:53 PM,57.9,23.0,26,29.69,10.0,ESE,17.3,24.2,N/A,,Overcast,120,2013-10-09 20:53:00
3:00 PM,55.4,23.0,29,29.85,10.0,Variable,5.8,24.2,N/A,,Overcast,0,2013-10-09 21:00:00
3:53 PM,57.0,24.1,28,29.68,10.0,SSE,12.7,18.4,N/A,,Scattered Clouds,150,2013-10-09 21:53:00
4:53 PM,55.9,25.0,30,29.68,10.0,SSE,9.2,-,N/A,,Mostly Cloudy,160,2013-10-09 22:53:00
5:53 PM,53.1,26.1,35,29.70,10.0,East,4.6,-,N/A,,Overcast,80,2013-10-09 23:53:00
6:53 PM,53.1,26.1,35,29.69,10.0,SE,3.5,-,N/A,,Overcast,130,2013-10-10 00:53:00
7:53 PM,50.0,26.1,39,29.71,10.0,SSE,4.6,-,N/A,,Scattered Clouds,150,2013-10-10 01:53:00
8:53 PM,48.9,27.0,43,29.70,10.0,SSE,5.8,-,N/A,,Mostly Cloudy,150,2013-10-10 02:53:00
9:53 PM,45.0,28.0,52,29.70,10.0,Variable,3.5,-,N/A,,Clear,0,2013-10-10 03:53:00
10:53 PM,45.0,28.9,53,29.69,10.0,North,5.8,-,N/A,,Mostly Cloudy,360,2013-10-10 04:53:00
11:53 PM,44.1,30.9,60,29.66,10.0,NNE,9.2,-,N/A,,Scattered Clouds,20,2013-10-10 05:53:00